#timestamp,LO_Frequency,Hit,StdDev 
1665950415.7,286046998.7,N
1665950435.5,286046997.0,N
1665950455.3,286046997.9,N
1665950475.2,286046996.9,N
1665950495.0,286047001.1,N
1665950495.9,286047001.1,N
1665950515.7,286046998.9,N
1665950535.6,286046996.6,N
1665950555.2,286046997.9,N
1665950575.0,286046995.2,Y
1665950575.9,286046995.2,P
1665950595.8,286046996.6,N
1665950615.6,286046999.1,N
1665950635.4,286046999.4,N
1665950655.3,286046998.0,N
1665950675.1,286046998.7,N
1665950695.9,286046998.3,N
1665950715.7,286047001.0,N
1665950735.5,286046998.4,N
1665950755.4,286046999.4,N
1665950775.2,286046998.4,N
1665950795.1,286047002.4,N
1665950796.0,286047002.4,N
1665950815.8,286047003.9,N
1665950835.6,286047001.3,N
1665950855.5,286047002.2,N
1665950875.3,286047002.8,N
1665950895.1,286047001.2,N
1665950915.9,286046998.8,N
1665950935.7,286046997.8,N
1665950955.6,286046997.2,N
1665950975.4,286046999.5,N
1665950995.2,286046998.9,N
1665951015.1,286046999.4,N
1665951016.0,286046999.4,N
1665951035.8,286046998.7,N
1665951055.6,286046996.5,N
1665951075.5,286046998.1,N
1665951095.3,286046998.4,N
1665951115.2,286046998.5,N
1665951135.9,286047000.8,N
1665951155.7,286046998.4,N
1665951175.6,286046998.1,N
1665951195.4,286046999.8,N
1665951215.3,286047000.6,N
1665951235.1,286047000.4,N
1665951236.0,286047000.4,N
1665951255.8,286047000.8,N
1665951275.7,286047000.1,N
1665951295.5,286046998.3,N
1665951315.3,286047001.0,N
1665951335.2,286047000.0,N
1665951355.0,286047001.7,N
1665951355.9,286047001.7,N
1665951375.8,286047002.0,N
1665951395.6,286047001.0,N
1665951415.4,286047000.3,N
1665951435.3,286047000.2,N
1665951455.1,286046999.7,N
1665951475.8,286047000.9,N
1665951495.7,286047002.3,N
1665951515.5,286047000.4,N
1665951535.4,286047000.1,N
1665951555.2,286046999.9,N
1665951575.0,286047000.5,N
1665951575.9,286047000.5,N
1665951595.8,286047000.5,N
1665951615.6,286047000.2,N
1665951635.4,286047000.9,N
1665951655.3,286046999.6,N
1665951675.1,286046999.0,N
1665951695.9,286047000.7,N
1665951715.7,286047000.6,N
1665951735.5,286047000.9,N
1665951755.4,286047000.3,N
1665951775.2,286047000.2,N
1665951795.1,286047000.4,N
1665951796.0,286047000.4,N
1665951815.8,286047000.6,N
1665951835.6,286046996.6,Y
1665951855.5,286046999.6,P
1665951875.3,286046998.8,N
1665951895.2,286046998.6,N
1665951915.9,286046999.9,N
1665951935.7,286047000.5,N
1665951955.6,286047001.1,N
1665951975.4,286047000.7,N
1665951995.2,286047001.1,N
1665952015.1,286047001.1,N
1665952016.0,286047001.1,N
1665952035.8,286046998.2,N
1665952055.7,286047000.0,N
1665952075.5,286047000.5,N
1665952095.3,286047002.4,N
1665952115.2,286047002.0,N
1665952135.0,286047002.0,N
1665952135.9,286047002.0,N
1665952155.7,286046996.5,N
1665952175.6,286046998.4,N
1665952195.4,286046998.3,N
1665952215.3,286046998.6,N
1665952235.1,286047000.5,N
1665952236.0,286047000.5,N
1665952255.8,286046998.6,N
1665952275.7,286046996.6,N
1665952295.5,286046998.6,N
1665952315.3,286046997.0,N
1665952335.2,286046999.5,N
1665952355.0,286046995.5,N
1665952355.9,286046995.5,N
1665952375.8,286046997.5,N
1665952395.6,286046999.4,N
1665952415.4,286046997.8,N
1665952435.3,286046998.7,N
1665952455.1,286046997.7,N
1665952475.8,286046999.6,N
1665952495.7,286047001.1,N
1665952515.5,286047000.2,N
1665952535.4,286047001.8,N
1665952555.2,286047003.6,N
1665952575.0,286047001.5,N
1665952575.9,286047001.5,N
1665952595.8,286047004.1,N
1665952615.6,286047003.1,N
1665952635.5,286047003.3,N
1665952655.3,286047003.3,N
1665952675.1,286047001.6,N
1665952695.9,286047001.4,N
1665952715.7,286047000.0,N
1665952735.5,286046998.7,N
1665952755.4,286047001.0,N
1665952775.2,286047000.3,N
1665952795.1,286047000.5,N
1665952796.0,286047000.5,N
1665952815.8,286047002.1,N
1665952835.6,286046998.2,N
1665952855.5,286046998.7,N
1665952875.3,286046999.9,N
1665952895.1,286047000.9,N
1665952915.9,286047000.2,N
1665952935.7,286047002.8,N
1665952955.6,286047000.1,N
1665952975.4,286047002.3,N
1665952995.2,286047002.1,N
1665953015.1,286047002.1,N
1665953016.0,286047002.1,N
1665953035.8,286047002.8,N
1665953055.7,286047002.3,N
1665953075.5,286047002.7,N
1665953095.3,286047002.8,N
1665953115.2,286047002.2,N
1665953135.0,286047001.9,N
1665953135.9,286047001.9,N
1665953155.7,286047002.6,N
1665953175.6,286047001.3,N
1665953195.4,286047002.0,N
1665953215.3,286047002.5,N
1665953235.1,286046999.9,N
1665953255.8,286047000.4,N
1665953275.7,286047002.1,N
1665953295.5,286047001.5,N
1665953315.4,286047002.6,N
1665953335.2,286047000.0,N
1665953355.0,286047000.5,N
1665953355.9,286047000.5,N
1665953375.8,286047000.6,N
1665953395.6,286047000.1,N
1665953415.4,286046999.9,N
1665953435.3,286047001.7,N
1665953455.1,286047003.6,Y
1665953475.9,286047002.6,P
1665953495.7,286047000.0,N
1665953515.5,286047000.4,N
1665953535.4,286046999.9,N
1665953555.2,286047002.4,N
1665953575.0,286047002.3,N
1665953576.0,286047002.3,N
1665953595.8,286046999.9,N
1665953615.6,286047000.5,N
1665953635.5,286046999.5,N
1665953655.3,286046997.4,N
1665953675.1,286046998.5,N
1665953695.9,286047001.0,N
1665953715.7,286047001.2,N
1665953735.6,286047000.5,N
1665953755.4,286047002.4,N
1665953775.2,286047002.8,N
1665953795.1,286047000.4,N
1665953796.0,286047000.4,N
1665953815.8,286047000.3,N
1665953835.7,286047000.7,N
1665953855.5,286046999.4,N
1665953875.3,286046996.9,N
1665953895.2,286046997.7,N
1665953915.9,286046998.8,N
1665953935.7,286047001.1,N
1665953955.6,286047002.7,N
1665953975.4,286047000.8,N
1665953995.2,286047002.4,N
